Time,TemperatureF,DewpointF,PressureIn,WindDirection,WindDirectionDegrees,WindSpeedMPH,WindSpeedGustMPH,Humidity,HourlyPrecipIn,Conditions,Clouds,dailyrainin,SoftwareType,DateUTC
2013-04-17 00:02:00,43.0,35.0,30.15,ENE,71,9.0,16.0,74,0.00,,,0.01,,2013-04-17 05:02:00,
2013-04-17 00:12:00,43.0,35.0,30.15,ENE,71,9.0,16.0,74,0.00,,,0.01,,2013-04-17 05:12:00,
2013-04-17 00:22:00,43.0,36.0,30.14,ENE,63,5.0,14.0,75,0.00,,,0.01,,2013-04-17 05:22:00,
2013-04-17 00:32:00,43.0,36.0,30.14,SE,142,3.0,15.0,75,0.00,,,0.01,,2013-04-17 05:32:00,
2013-04-17 00:42:00,43.0,36.0,30.14,SE,142,3.0,15.0,75,0.00,,,0.01,,2013-04-17 05:42:00,
2013-04-17 00:52:00,43.0,36.0,30.15,East,88,6.0,14.0,75,0.00,,,0.01,,2013-04-17 05:52:00,
2013-04-17 01:02:00,43.0,36.0,30.15,ENE,63,5.0,17.0,75,0.00,,,0.01,,2013-04-17 06:02:00,
2013-04-17 01:12:00,43.0,36.0,30.15,ENE,63,5.0,17.0,75,0.00,,,0.01,,2013-04-17 06:12:00,
2013-04-17 01:22:00,43.0,36.0,30.15,East,80,4.0,12.0,76,0.00,,,0.01,,2013-04-17 06:22:00,
2013-04-17 01:32:00,43.0,36.0,30.14,ENE,69,5.0,13.0,76,0.00,,,0.01,,2013-04-17 06:32:00,
2013-04-17 01:42:00,43.0,36.0,30.14,ENE,69,5.0,13.0,76,0.00,,,0.01,,2013-04-17 06:42:00,
2013-04-17 01:52:00,43.0,36.0,30.13,East,96,4.0,11.0,76,0.00,,,0.01,,2013-04-17 06:52:00,
2013-04-17 02:02:00,43.0,36.0,30.13,ENE,63,5.0,13.0,77,0.00,,,0.01,,2013-04-17 07:02:00,
2013-04-17 02:12:00,43.0,36.0,30.13,ENE,63,5.0,13.0,77,0.00,,,0.01,,2013-04-17 07:12:00,
2013-04-17 02:22:00,43.0,36.0,30.12,ENE,57,6.0,11.0,77,0.00,,,0.01,,2013-04-17 07:22:00,
2013-04-17 02:32:00,43.0,37.0,30.11,NE,38,4.0,13.0,78,0.00,,,0.01,,2013-04-17 07:32:00,
2013-04-17 02:42:00,43.0,37.0,30.11,NE,38,4.0,13.0,78,0.00,,,0.01,,2013-04-17 07:42:00,
2013-04-17 02:52:00,43.0,37.0,30.10,ENE,67,3.0,13.0,78,0.00,,,0.01,,2013-04-17 07:52:00,
2013-04-17 03:02:00,43.0,37.0,30.09,NE,51,5.0,13.0,78,0.00,,,0.01,,2013-04-17 08:02:00,
2013-04-17 03:12:00,43.0,37.0,30.09,NE,51,5.0,13.0,78,0.00,,,0.01,,2013-04-17 08:12:00,
2013-04-17 03:22:00,43.0,37.0,30.07,ESE,111,3.0,17.0,79,0.00,,,0.01,,2013-04-17 08:22:00,
2013-04-17 03:32:00,43.0,37.0,30.06,ENE,69,4.0,10.0,80,0.00,,,0.01,,2013-04-17 08:32:00,
2013-04-17 03:42:00,43.0,37.0,30.06,ENE,69,4.0,10.0,80,0.00,,,0.01,,2013-04-17 08:42:00,
2013-04-17 03:52:00,43.0,37.0,30.04,East,94,5.0,10.0,80,0.00,,,0.01,,2013-04-17 08:52:00,
2013-04-17 04:02:00,43.0,38.0,30.04,ENE,74,5.0,11.0,81,0.00,,,0.01,,2013-04-17 09:02:00,
2013-04-17 04:12:00,43.0,38.0,30.04,ENE,74,5.0,11.0,81,0.00,,,0.01,,2013-04-17 09:12:00,
2013-04-17 04:22:00,43.0,38.0,30.02,SE,137,4.0,13.0,82,0.00,,,0.01,,2013-04-17 09:22:00,
2013-04-17 04:33:00,43.0,38.0,30.01,ESE,121,3.0,15.0,83,0.00,,,0.01,,2013-04-17 09:33:00,
2013-04-17 04:42:00,43.0,38.0,30.01,ESE,121,3.0,15.0,83,0.00,,,0.01,,2013-04-17 09:42:00,
2013-04-17 04:52:00,43.0,38.0,30.00,ESE,123,5.0,12.0,84,0.00,,,0.01,,2013-04-17 09:52:00,
2013-04-17 05:02:00,43.0,38.0,30.01,ENE,64,2.0,10.0,84,0.00,,,0.01,,2013-04-17 10:02:00,
2013-04-17 05:12:00,43.0,38.0,30.01,ENE,64,2.0,10.0,84,0.00,,,0.01,,2013-04-17 10:12:00,
2013-04-17 05:23:00,43.0,39.0,30.02,East,80,0.0,8.0,85,0.00,,,0.01,,2013-04-17 10:23:00,
2013-04-17 05:32:00,43.0,39.0,30.02,East,85,3.0,9.0,85,0.00,,,0.00,,2013-04-17 10:32:00,
2013-04-17 05:42:00,43.0,39.0,30.02,East,85,3.0,9.0,85,0.00,,,0.00,,2013-04-17 10:42:00,
2013-04-17 05:52:00,44.0,40.0,30.01,ENE,67,0.0,7.0,86,0.00,,,0.00,,2013-04-17 10:52:00,
2013-04-17 06:02:00,44.0,40.0,29.99,ENE,76,3.0,7.0,87,0.00,,,0.00,,2013-04-17 11:02:00,
2013-04-17 06:12:00,44.0,40.0,29.99,ENE,76,3.0,7.0,87,0.00,,,0.00,,2013-04-17 11:12:00,
2013-04-17 06:22:00,44.0,40.0,29.99,ESE,109,1.0,10.0,87,0.00,,,0.00,,2013-04-17 11:22:00,
2013-04-17 06:32:00,44.0,41.0,29.98,East,82,5.0,13.0,88,0.00,,,0.00,,2013-04-17 11:32:00,
2013-04-17 06:42:00,44.0,41.0,29.98,East,82,5.0,13.0,88,0.00,,,0.00,,2013-04-17 11:42:00,
2013-04-17 06:52:00,44.0,41.0,29.98,ESE,111,5.0,10.0,89,0.00,,,0.00,,2013-04-17 11:52:00,
2013-04-17 07:02:00,44.0,41.0,29.96,East,92,7.0,15.0,90,0.00,,,0.00,,2013-04-17 12:02:00,
2013-04-17 07:12:00,44.0,41.0,29.96,East,92,7.0,15.0,90,0.00,,,0.00,,2013-04-17 12:12:00,
2013-04-17 07:22:00,44.0,42.0,29.96,ESE,119,7.0,13.0,91,0.00,,,0.00,,2013-04-17 12:22:00,
2013-04-17 07:32:00,44.0,42.0,29.96,East,86,5.0,12.0,92,0.00,,,0.00,,2013-04-17 12:32:00,
2013-04-17 07:42:00,44.0,42.0,29.96,East,86,5.0,12.0,92,0.00,,,0.00,,2013-04-17 12:42:00,
2013-04-17 07:52:00,44.0,42.0,29.98,East,83,2.0,10.0,92,0.00,,,0.00,,2013-04-17 12:52:00,
2013-04-17 08:02:00,44.0,42.0,29.99,East,90,0.0,3.0,93,0.00,,,0.00,,2013-04-17 13:02:00,
2013-04-17 08:12:00,44.0,42.0,29.99,East,90,0.0,3.0,93,0.00,,,0.00,,2013-04-17 13:12:00,
2013-04-17 08:22:00,44.0,42.0,29.97,ESE,117,4.0,10.0,93,0.00,,,0.00,,2013-04-17 13:22:00,
2013-04-17 08:32:00,45.0,43.0,29.96,ESE,116,3.0,9.0,93,0.00,,,0.00,,2013-04-17 13:32:00,
2013-04-17 08:42:00,45.0,43.0,29.96,ESE,116,3.0,9.0,93,0.00,,,0.00,,2013-04-17 13:42:00,
2013-04-17 08:52:00,45.0,43.0,29.96,ESE,115,3.0,15.0,93,0.00,,,0.00,,2013-04-17 13:52:00,
2013-04-17 09:02:00,45.0,43.0,29.97,SE,138,3.0,10.0,94,0.00,,,0.00,,2013-04-17 14:02:00,
2013-04-17 09:12:00,45.0,43.0,29.97,SE,138,3.0,10.0,94,0.00,,,0.00,,2013-04-17 14:12:00,
2013-04-17 09:22:00,45.0,43.0,29.96,ESE,117,2.0,7.0,94,0.00,,,0.00,,2013-04-17 14:22:00,
2013-04-17 09:32:00,46.0,44.0,29.96,SE,133,2.0,6.0,94,0.00,,,0.00,,2013-04-17 14:32:00,
2013-04-17 09:42:00,46.0,44.0,29.96,East,86,2.0,5.0,94,0.01,,,0.01,,2013-04-17 14:42:00,
2013-04-17 09:52:00,46.0,44.0,29.96,East,86,2.0,5.0,94,0.01,,,0.01,,2013-04-17 14:52:00,
2013-04-17 10:02:00,46.0,44.0,29.96,ESE,117,0.0,5.0,94,0.05,,,0.05,,2013-04-17 15:02:00,
2013-04-17 10:12:00,47.0,45.0,29.93,SE,132,5.0,12.0,94,0.06,,,0.06,,2013-04-17 15:12:00,
2013-04-17 10:22:00,47.0,45.0,29.93,SE,132,5.0,12.0,94,0.06,,,0.06,,2013-04-17 15:22:00,
2013-04-17 10:33:00,47.0,46.0,29.93,ESE,113,3.0,9.0,95,0.13,,,0.13,,2013-04-17 15:33:00,
2013-04-17 10:42:00,47.0,46.0,29.93,ESE,113,3.0,9.0,95,0.13,,,0.13,,2013-04-17 15:42:00,
2013-04-17 10:53:00,48.0,47.0,29.92,ESE,107,4.0,9.0,95,0.12,,,0.13,,2013-04-17 15:53:00,
2013-04-17 11:03:00,48.0,47.0,29.92,NNW,337,1.0,8.0,95,0.08,,,0.13,,2013-04-17 16:03:00,
2013-04-17 11:12:00,48.0,47.0,29.92,NNW,337,1.0,8.0,95,0.08,,,0.13,,2013-04-17 16:12:00,
2013-04-17 11:22:00,48.0,47.0,29.92,NNW,337,1.0,8.0,95,0.08,,,0.13,,2013-04-17 16:22:00,
2013-04-17 11:32:00,48.0,47.0,29.92,North,360,1.0,8.0,95,0.31,,,0.44,,2013-04-17 16:32:00,
2013-04-17 11:42:00,48.0,47.0,29.92,North,360,1.0,8.0,95,0.31,,,0.44,,2013-04-17 16:42:00,
2013-04-17 11:52:00,48.0,47.0,29.92,North,5,0.0,3.0,95,0.39,,,0.52,,2013-04-17 16:52:00,
2013-04-17 12:02:00,48.0,47.0,29.92,North,5,0.0,3.0,95,0.39,,,0.52,,2013-04-17 17:02:00,
2013-04-17 12:11:00,49.0,48.0,29.90,North,5,0.0,0.0,95,0.12,,,0.57,,2013-04-17 17:11:00,
2013-04-17 12:12:00,48.0,47.0,29.92,North,5,0.0,3.0,95,0.39,,,0.52,,2013-04-17 17:12:00,
2013-04-17 12:22:00,49.0,48.0,29.91,North,5,0.0,0.0,95,0.20,,,0.56,,2013-04-17 17:22:00,
2013-04-17 12:33:00,49.0,48.0,29.90,North,5,0.0,0.0,95,0.12,,,0.57,,2013-04-17 17:33:00,
2013-04-17 12:42:00,49.0,48.0,29.90,North,5,0.0,0.0,95,0.12,,,0.57,,2013-04-17 17:42:00,
2013-04-17 12:52:00,49.0,48.0,29.90,North,5,0.0,0.0,95,0.12,,,0.57,,2013-04-17 17:52:00,
2013-04-17 13:02:00,49.0,48.0,29.90,North,5,0.0,0.0,95,0.12,,,0.57,,2013-04-17 18:02:00,
2013-04-17 13:22:00,50.0,49.0,29.88,NE,46,0.0,2.0,95,0.01,,,0.57,,2013-04-17 18:22:00,
2013-04-17 13:32:00,50.0,49.0,29.88,NE,46,0.0,4.0,95,0.00,,,0.57,,2013-04-17 18:32:00,
2013-04-17 13:42:00,50.0,49.0,29.88,NE,46,0.0,4.0,95,0.00,,,0.57,,2013-04-17 18:42:00,
2013-04-17 13:52:00,50.0,49.0,29.86,NE,46,1.0,4.0,95,0.00,,,0.57,,2013-04-17 18:52:00,
2013-04-17 14:02:00,49.0,48.0,29.86,NE,42,0.0,5.0,95,0.00,,,0.57,,2013-04-17 19:02:00,
2013-04-17 14:12:00,49.0,48.0,29.86,NE,42,0.0,5.0,95,0.00,,,0.57,,2013-04-17 19:12:00,
2013-04-17 14:22:00,50.0,49.0,29.85,NE,38,1.0,6.0,95,0.00,,,0.57,,2013-04-17 19:22:00,
2013-04-17 14:32:00,50.0,49.0,29.83,ENE,60,1.0,7.0,95,0.00,,,0.57,,2013-04-17 19:32:00,
2013-04-17 14:42:00,50.0,49.0,29.83,ENE,60,1.0,7.0,95,0.00,,,0.57,,2013-04-17 19:42:00,
2013-04-17 14:52:00,50.0,49.0,29.83,ENE,60,1.0,7.0,95,0.00,,,0.57,,2013-04-17 19:52:00,
2013-04-17 15:02:00,49.0,48.0,29.83,NE,46,0.0,7.0,95,0.00,,,0.57,,2013-04-17 20:02:00,
2013-04-17 15:12:00,49.0,48.0,29.83,NE,46,0.0,7.0,95,0.00,,,0.57,,2013-04-17 20:12:00,
2013-04-17 15:22:00,49.0,48.0,29.82,NE,46,1.0,5.0,95,0.00,,,0.57,,2013-04-17 20:22:00,
2013-04-17 15:32:00,49.0,48.0,29.80,NE,47,0.0,4.0,95,0.00,,,0.57,,2013-04-17 20:32:00,
2013-04-17 15:42:00,49.0,48.0,29.80,NE,47,0.0,4.0,95,0.00,,,0.57,,2013-04-17 20:42:00,
2013-04-17 15:52:00,49.0,48.0,29.79,NNE,12,2.0,7.0,95,0.00,,,0.57,,2013-04-17 20:52:00,
2013-04-17 16:02:00,49.0,48.0,29.79,North,11,1.0,5.0,95,0.00,,,0.57,,2013-04-17 21:02:00,
2013-04-17 16:12:00,49.0,48.0,29.79,North,11,1.0,5.0,95,0.00,,,0.57,,2013-04-17 21:12:00,
2013-04-17 16:22:00,49.0,48.0,29.79,North,11,1.0,7.0,95,0.00,,,0.57,,2013-04-17 21:22:00,
2013-04-17 16:33:00,49.0,48.0,29.79,North,10,0.0,4.0,95,0.00,,,0.57,,2013-04-17 21:33:00,
2013-04-17 16:42:00,49.0,48.0,29.79,North,10,0.0,4.0,95,0.00,,,0.57,,2013-04-17 21:42:00,
2013-04-17 16:53:00,49.0,48.0,29.79,North,10,0.0,3.0,95,0.00,,,0.57,,2013-04-17 21:53:00,
2013-04-17 17:02:00,49.0,48.0,29.78,North,11,0.0,5.0,95,0.00,,,0.57,,2013-04-17 22:02:00,
2013-04-17 17:12:00,49.0,48.0,29.78,North,11,0.0,5.0,95,0.00,,,0.57,,2013-04-17 22:12:00,
2013-04-17 17:22:00,49.0,48.0,29.78,NE,46,0.0,4.0,95,0.00,,,0.57,,2013-04-17 22:22:00,
2013-04-17 17:33:00,49.0,48.0,29.77,NE,45,0.0,3.0,95,0.00,,,0.57,,2013-04-17 22:33:00,
2013-04-17 17:42:00,49.0,48.0,29.77,NNE,31,1.0,5.0,95,0.00,,,0.57,,2013-04-17 22:42:00,
2013-04-17 17:53:00,49.0,48.0,29.77,NNE,31,1.0,5.0,95,0.00,,,0.57,,2013-04-17 22:53:00,
2013-04-17 18:02:00,48.0,47.0,29.76,NNE,27,0.0,5.0,95,0.00,,,0.57,,2013-04-17 23:02:00,
2013-04-17 18:12:00,49.0,48.0,29.75,NNE,22,0.0,5.0,96,0.00,,,0.57,,2013-04-17 23:12:00,
2013-04-17 18:22:00,49.0,48.0,29.75,NNE,22,0.0,5.0,96,0.00,,,0.57,,2013-04-17 23:22:00,
2013-04-17 18:32:00,48.0,47.0,29.77,NNE,12,1.0,6.0,96,0.00,,,0.57,,2013-04-17 23:32:00,
2013-04-17 18:42:00,48.0,47.0,29.77,NNW,330,3.0,9.0,96,0.00,,,0.57,,2013-04-17 23:42:00,
2013-04-17 18:52:00,48.0,47.0,29.77,NNW,330,3.0,9.0,96,0.00,,,0.57,,2013-04-17 23:52:00,
2013-04-17 19:02:00,48.0,47.0,29.73,North,355,0.0,8.0,96,0.00,,,0.57,,2013-04-18 00:02:00,
2013-04-17 19:12:00,47.0,46.0,29.73,NNW,331,1.0,9.0,95,0.00,,,0.57,,2013-04-18 00:12:00,
2013-04-17 19:22:00,47.0,46.0,29.73,NNW,331,1.0,9.0,95,0.00,,,0.57,,2013-04-18 00:22:00,
2013-04-17 19:32:00,47.0,46.0,29.74,North,360,3.0,9.0,96,0.00,,,0.57,,2013-04-18 00:32:00,
2013-04-17 19:42:00,47.0,46.0,29.70,North,5,1.0,9.0,95,0.00,,,0.57,,2013-04-18 00:42:00,
2013-04-17 19:52:00,47.0,46.0,29.70,North,5,1.0,9.0,95,0.00,,,0.57,,2013-04-18 00:52:00,
2013-04-17 20:02:00,47.0,46.0,29.71,NNE,28,1.0,7.0,96,0.00,,,0.57,,2013-04-18 01:02:00,
2013-04-17 20:12:00,47.0,46.0,29.72,NNE,30,0.0,5.0,96,0.00,,,0.57,,2013-04-18 01:12:00,
2013-04-17 20:22:00,47.0,46.0,29.72,NNE,30,0.0,5.0,96,0.00,,,0.57,,2013-04-18 01:22:00,
2013-04-17 20:32:00,47.0,46.0,29.76,NW,322,3.0,8.0,96,0.00,,,0.57,,2013-04-18 01:32:00,
2013-04-17 20:42:00,46.0,45.0,29.78,West,269,4.0,11.0,96,0.00,,,0.57,,2013-04-18 01:42:00,
2013-04-17 20:52:00,46.0,45.0,29.78,West,269,4.0,11.0,96,0.00,,,0.57,,2013-04-18 01:52:00,
2013-04-17 21:02:00,45.0,44.0,29.76,NW,324,3.0,11.0,96,0.00,,,0.57,,2013-04-18 02:02:00,
2013-04-17 21:12:00,45.0,44.0,29.76,North,355,4.0,8.0,96,0.00,,,0.57,,2013-04-18 02:12:00,
2013-04-17 21:22:00,45.0,44.0,29.76,North,355,4.0,8.0,96,0.00,,,0.57,,2013-04-18 02:22:00,
2013-04-17 21:32:00,45.0,44.0,29.77,NNW,331,6.0,13.0,95,0.00,,,0.57,,2013-04-18 02:32:00,
2013-04-17 21:42:00,45.0,44.0,29.77,NNW,331,6.0,13.0,95,0.00,,,0.57,,2013-04-18 02:42:00,
2013-04-17 21:52:00,45.0,44.0,29.77,NNW,331,6.0,13.0,95,0.00,,,0.57,,2013-04-18 02:52:00,
2013-04-17 22:02:00,44.0,43.0,29.75,North,360,0.0,7.0,96,0.00,,,0.57,,2013-04-18 03:02:00,
2013-04-17 22:12:00,44.0,43.0,29.76,NNW,329,4.0,11.0,96,0.01,,,0.59,,2013-04-18 03:12:00,
2013-04-17 22:22:00,44.0,43.0,29.76,NNW,329,4.0,11.0,96,0.01,,,0.59,,2013-04-18 03:22:00,
2013-04-17 22:33:00,44.0,43.0,29.76,NW,305,2.0,9.0,96,0.01,,,0.59,,2013-04-18 03:33:00,
2013-04-17 22:43:00,44.0,43.0,29.75,NW,311,4.0,9.0,96,0.02,,,0.60,,2013-04-18 03:43:00,
2013-04-17 22:53:00,44.0,43.0,29.75,NW,311,4.0,9.0,96,0.02,,,0.60,,2013-04-18 03:53:00,
2013-04-17 23:03:00,44.0,43.0,29.75,NW,319,4.0,8.0,96,0.02,,,0.60,,2013-04-18 04:03:00,
2013-04-17 23:13:00,44.0,43.0,29.75,NW,319,4.0,8.0,96,0.02,,,0.60,,2013-04-18 04:13:00,
2013-04-17 23:23:00,44.0,43.0,29.75,NW,311,1.0,7.0,96,0.02,,,0.61,,2013-04-18 04:23:00,
2013-04-17 23:33:00,44.0,43.0,29.74,NNW,333,0.0,11.0,96,0.02,,,0.61,,2013-04-18 04:33:00,
2013-04-17 23:43:00,44.0,43.0,29.72,NNE,24,0.0,8.0,96,0.01,,,0.61,,2013-04-18 04:43:00,
2013-04-17 23:53:00,44.0,43.0,29.72,NNE,24,0.0,8.0,96,0.01,,,0.61,,2013-04-18 04:53:00,